Home   Weather   Albuquerque   Past weeks

Flag for USA Past Weather in Albuquerque, New Mexico, USA — Yesterday and Last 2 Weeks

Now
40 °F

Mostly cloudy.


Feels Like: 34 °F
Forecast: 34 / 48 °F
Wind: 9 mph from East

Location: Albuquerque International Airport

Current Time: Jan 17, 2017 at 2:20:20 am

Latest Report: Jan 17, 2017 at 1:52 am


Visibility: 10 mi

Pressure: 30.06 "Hg (24.96 "Hg at 1510m altitude)

Humidity: 80%

Dew Point: 34 °F

Location of AlbuquerqueLocation

Past Weather in Albuquerque — Graph

°F

Albuquerque Temperature Yesterday

Maximum temperature yesterday: 48 °F (at 3:52 pm)
Minimum temperature yesterday: 36 °F (at 2:52 am)
Average temperature yesterday: 40 °F

High & Low Weather Summary for the Past Weeks

 TemperatureHumidityPressure
High60 °F (Jan 10, 1:52 pm)100% (Jan 2, 12:05 am)30.60 "Hg (Jan 2, 12:05 am)
Low14 °F (Jan 6, 6:52 am)8% (Jan 10, 3:52 pm)29.60 "Hg (Jan 5, 3:52 pm)
Average41 °F62%30.04 "Hg
* Reported Jan 2 12:05 am — Jan 17 12:52 am, Albuquerque, Weather by CustomWeather, © 2017

Note: Actual official high and low records may vary slightly from our data, if they occured in-between our weather recording intervals... More about our weather records

Advertising

Albuquerque Weather History for the Previous 24 Hours

Scroll right to see more
 ConditionsComfort  
Time TempWeatherWind HumidityBarometerVisibility
12:52 am
Tue, Jan 17
40 °FMostly cloudy.10 mph83%30.05 "Hg10 mi
11:52 pm
Mon, Jan 16
40 °FLight rain. Mostly cloudy.10 mph86%30.07 "Hg10 mi
11:15 pm40 °FLight rain. Overcast.7 mph86%30.11 "Hg10 mi
10:52 pm39 °FMostly cloudy.12 mph89%30.09 "Hg10 mi
9:52 pm41 °FLight rain. Fog.8 mph93%30.08 "Hg6 mi
9:28 pm41 °FLight rain. Mostly cloudy.9 mph93%30.09 "Hg10 mi
8:52 pm42 °FLight rain. Mostly cloudy.8 mph89%30.06 "Hg10 mi
8:30 pm42 °FLight rain. Mostly cloudy.5 mph92%30.08 "Hg10 mi
8:19 pm42 °FLight rain. Mostly cloudy.5 mph92%30.07 "Hg9 mi
7:52 pm43 °FMostly cloudy.8 mph86%30.04 "Hg10 mi
6:52 pm45 °FPassing clouds.9 mph76%30.01 "Hg10 mi
5:52 pm47 °FPartly cloudy.3 mph64%29.97 "Hg10 mi
4:52 pm47 °FPartly sunny.6 mph66%29.96 "Hg10 mi
3:52 pm48 °FPartly sunny.7 mph61%29.93 "Hg10 mi
2:52 pm47 °FPartly sunny.No wind64%29.92 "Hg10 mi
1:52 pm46 °FPartly sunny.No wind68%29.92 "Hg10 mi
12:52 pm45 °FPartly sunny.5 mph68%29.94 "Hg10 mi
11:52 am42 °FPartly sunny.5 mph82%29.99 "Hg10 mi
10:52 am39 °FFog.No wind89%30.01 "Hg10 mi
9:52 am37 °FFog.5 mph93%30.00 "Hg10 mi
8:52 am37 °FFog.5 mph93%29.96 "Hg10 mi
7:52 am36 °FPartly sunny.7 mph97%29.95 "Hg10 mi
6:52 am37 °FPassing clouds.3 mph93%29.92 "Hg10 mi
5:52 am36 °FDrizzle. Low clouds.5 mph97%29.89 "Hg8 mi
4:52 am36 °FPartly cloudy.3 mph100%29.89 "Hg8 mi
4:10 am36 °FPartly cloudy.No wind100%29.91 "Hg10 mi
3:52 am36 °FPassing clouds.No wind100%29.88 "Hg10 mi
3:24 am37 °FPassing clouds.5 mph96%29.91 "Hg10 mi
2:52 am36 °FPartly cloudy.3 mph100%29.88 "Hg10 mi
2:20 am37 °FPartly cloudy.No wind96%29.91 "Hg10 mi
Weather by CustomWeather, © 2017

See weather overviewHow to use our weather pages